Weather observations for the past three days for
Ponca City, Ponca City Municipal Airport
Imperial (Metric)
Date Time (cdt) Wind (mph) Vis. (mi.) Weather Sky Cond. Temperature (ºF) Relative Humidity Wind Chill (°F) Heat Index (°F) Pressure Precipitation (in)
Air Dwpt 6 hour altimeter (in) sea level (mb) 1 hr 3 hr 6 hr
Max. Min.
12 19:53 S 14 G 26 10.00 Fair CLR 93 69.1 46% 98 29.97 1013.1
12 18:53 S 16 G 26 10.00 Fair CLR 95 69.1 99 93.9 43% 101 29.95 1012.5
12 17:53 Calm 10.00 Fair CLR 96.1 70 43% 103 29.94 1012.2
12 16:53 S 15 G 28 10.00 Fair CLR 98.1 69.1 39% 104 29.95 1012.5
12 15:53 S 12 G 22 10.00 Fair CLR 98.1 70 40% 105 29.96 1012.7
12 14:53 S 14 G 31 10.00 Fair CLR 98.1 70 40% 105 29.97 1013.0
12 13:53 S 14 G 28 10.00 Fair CLR 96.1 70 43% 103 29.98 1013.5
12 12:53 S 16 G 25 10.00 Fair CLR 95 69.1 95 75.9 43% 101 30 1014.0
12 11:53 S 12 G 24 10.00 Fair CLR 93 69.1 46% 98 29.99 1013.9
12 10:53 S 12 G 21 10.00 Fair CLR 89.1 70 53% 94 30 1014.3
12 09:53 S 10 G 21 10.00 Fair CLR 86 69.1 57% 90 30.01 1014.5
12 08:53 S 15 G 22 10.00 Fair CLR 82 69.1 65% 85 30.01 1014.7
12 07:53 SE 14 10.00 Fair CLR 78.1 68 71% 80 30.01 1014.6
12 06:53 S 12 10.00 Fair CLR 75.9 68 82.9 75.9 77% 77 29.99 1014.1
12 05:53 SE 10 10.00 Fair CLR 75.9 68 77% 77 29.99 1014.1
12 04:53 S 10 10.00 Fair CLR 78.1 68 71% 80 29.97 1013.4
12 02:53 S 6 10.00 Fair CLR 80.1 69.1 69% 83 29.95 1012.4
12 01:53 S 10 G 21 10.00 Fair CLR 82 69.1 65% 85 29.95 1012.5
12 00:53 S 8 10.00 Fair CLR 82.9 70 95 82.9 65% 87 29.96 1012.9
11 23:53 S 8 10.00 Fair CLR 84 70 63% 88 29.96 1013.0
11 22:53 SE 12 10.00 Fair CLR 84 69.1 61% 88 29.96 1012.9
11 21:53 S 13 10.00 Fair CLR 88 66.9 50% 91 29.93 1012.0
11 20:53 SE 12 10.00 Fair CLR 90 66 45% 93 29.92 1011.7
11 19:53 S 15 G 23 10.00 Fair CLR 93 66.9 42% 97 29.91 1011.2
11 18:53 S 13 G 25 10.00 A Few Clouds FEW100 95 66.9 99 93.9 40% 99 29.9 1010.9
11 17:53 S 18 G 31 10.00 Fair CLR 97 66.9 37% 101 29.9 1010.8
11 16:53 S 10 G 24 10.00 A Few Clouds FEW090 98.1 66.9 36% 103 29.9 1011.0
11 15:53 S 17 G 26 10.00 A Few Clouds FEW090 96.1 64.9 36% 99 29.91 1011.4
11 14:53 S 10 G 23 10.00 A Few Clouds FEW085 98.1 66 35% 102 29.92 1011.7
11 13:53 S 14 G 29 10.00 Fair CLR 97 66 36% 101 29.95 1012.4
11 12:53 S 17 G 24 10.00 Fair CLR 93.9 71.1 93.9 75 48% 101 29.96 1012.9
11 11:53 SE 15 10.00 Fair CLR 91.9 71.1 51% 99 29.97 1013.4
11 10:53 SE 10 G 20 10.00 Fair CLR 89.1 71.1 55% 95 29.98 1013.6
11 09:53 S 12 G 17 10.00 Fair CLR 87.1 69.1 55% 91 29.99 1014.0
11 08:53 S 8 10.00 Fair CLR 81 69.1 67% 84 29.98 1013.9
11 07:53 S 6 10.00 Fair CLR 79 68 69% 81 29.99 1014.0
11 06:53 S 7 10.00 A Few Clouds FEW120 77 66 80.1 75.9 69% 79 29.98 1013.8
11 05:53 S 7 10.00 Mostly Cloudy BKN110 78.1 64.9 64% 80 29.98 1013.6
11 04:53 S 5 10.00 Mostly Cloudy BKN110 78.1 63 60% 80 29.98 1013.5
11 03:53 S 5 10.00 Partly Cloudy SCT110 77 63 62% 79 29.98 1013.7
11 02:53 S 6 10.00 A Few Clouds FEW100 77 63 62% 79 29.99 1014.0
11 01:53 S 7 10.00 Fair CLR 80.1 64 58% 82 30 1014.2
11 00:53 S 3 10.00 Fair CLR 80.1 64 91.9 80.1 58% 82 30 1014.5
10 23:53 S 5 10.00 Fair CLR 82 63 53% 83 30.01 1014.5
10 22:53 S 8 10.00 Mostly Cloudy BKN100 82 63 53% 83 30.01 1014.7
10 21:53 SE 8 10.00 Fair CLR 82.9 64 53% 84 29.99 1014.0
10 20:53 SE 10 10.00 Fair CLR 86 63 46% 87 29.98 1013.7
10 19:53 SE 10 10.00 Fair CLR 90 61 38% 90 29.96 1013.3
10 18:53 SE 9 10.00 Fair CLR 91.9 59 96.1 91 33% 91 29.95 1013.0
10 17:53 SE 13 10.00 Fair CLR 93 60.1 33% 93 29.96 1013.2
10 16:53 SE 8 10.00 Fair CLR 93.9 61 33% 94 29.97 1013.4
10 15:53 SE 7 10.00 A Few Clouds FEW080 93.9 63 36% 95 29.98 1013.8
10 14:53 NW 3 10.00 Fair CLR 93.9 60.1 32% 94 29.99 1014.3
10 13:53 Vrbl 5 10.00 Fair CLR 93 60.1 33% 93 30.01 1014.9
10 12:53 N 3 10.00 Fair CLR 91 62.1 91 64 38% 92 30.02 1015.3
10 11:53 Calm 10.00 Fair CLR 89.1 63 42% 90 30.03 1015.7
10 10:53 Calm 10.00 Fair CLR 87.1 66 50% 89 30.04 1015.7
10 09:53 Calm 10.00 Fair CLR 82 66 58% 84 30.04 1015.9
10 08:53 Calm 10.00 Fair CLR 77 64.9 66% 79 30.05 1016.2
10 07:53 Calm 10.00 Fair CLR 70 64.9 84% 30.04 1015.8
10 06:53 N 3 10.00 Fair CLR 64 62.1 69.1 63 93% 30.02 1015.5
10 05:53 Calm 10.00 Fair CLR 64 62.1 93% 30.01 1015.0
10 04:53 Calm 10.00 Fair CLR 64.9 63 93% 30 1014.7
10 03:53 Calm 10.00 Fair CLR 64.9 63 93% 30 1014.7
10 02:53 Calm 10.00 Fair CLR 66.9 64 91% 30 1014.6
10 01:53 Calm 10.00 Fair CLR 66 64 93% 30 1014.5
10 00:53 Calm 10.00 Fair CLR 68 64 88 68 87% 30 1014.6
09 23:53 Calm 10.00 Fair CLR 70 64.9 84% 29.99 1014.4
09 22:53 Calm 10.00 Fair CLR 72 63 73% 29.98 1014.0
09 21:53 Calm 10.00 Fair CLR 73.9 63 69% 29.97 1013.5
09 20:53 E 3 10.00 Fair CLR 79 61 54% 80 29.95 1012.9
Date Time (cdt) Wind (mph) Vis. (mi.) Weather Sky Cond. Air Dwpt Max. Min. Relative Humidity Wind Chill (°F) Heat Index (°F) altimeter (in) sea level (mb) 1 hr 3 hr 6 hr
6 hour
Temperature (ºF) Pressure Precipitation (in)